Regional Weather Roundup
Issued by NWS

Home | Current Version | Previous Version | Text Only | Print | Product List | Glossary On
Versions: 1 2 3 4 5 6 7 8 9 10 11 12 13 14 15 16 17 18 19 20 21 22 23 24 25 26 27 28 29 30 31 32 33 34 35 36 37 38 39 40 41 42 43 44 45 46 47 48 49 50
000
ASUS45 KSLC 011510
RWRUT

UTAH REGIONAL WEATHER ROUNDUP
NATIONAL WEATHER SERVICE SALT LAKE CITY UT
900 AM MDT WED JUL 01 2015

UTZ001>011-023>025-011600-

NORTHERN UTAH

CITY           SKY/WX    TMP DP  RH WIND       PRES   REMARKS
BRIGHAM CITY   MOSUNNY   78  53  41 CALM      30.10S
HILL AFB       MOSUNNY   77  55  46 E13       30.13R
LOGAN          MOSUNNY   75  57  53 N5        30.12R
OGDEN          MOSUNNY   82  53  36 CALM      30.11R
PROVO AIRPORT  MOSUNNY   79  55  44 SE8       30.14R
SALT LAKE CITY MOSUNNY   82  56  40 CALM      30.08R
VERNAL         CLOUDY    76  51  41 CALM      30.17R
WENDOVER       MOSUNNY   82  52  34 E8        30.11R
HEBER CITY     MOSUNNY   72  52  49 CALM      30.21S
WEST JORDAN    SUNNY     81  52  36 SE3       30.12S

$$

UTZ012>022-026-027-011600-

SOUTHERN/CENTRAL UTAH

CITY           SKY/WX    TMP DP  RH WIND       PRES   REMARKS
BLANDING       PTSUNNY   79  48  33 E5        30.25S
BRYCE CANYON   MOSUNNY   69  49  48 CALM      30.35S
CEDAR CITY     MOSUNNY   75  46  35 CALM      30.18R
DELTA          MOSUNNY   77  53  43 CALM      30.13R
HANKSVILLE     PTSUNNY   82  46  28 CALM      30.07F
MILFORD        SUNNY     81  50  33 VRB5      30.13S
MOAB/CYNLANDS  SUNNY     86  45  23 E8        30.04R
PRICE          PTSUNNY   80  48  32 SE6       30.19R
ST GEORGE      MOSUNNY   90  55  31 SW20      29.98S

$$

REGIONAL REPORTS     COLORADO/ARIZONA

CITY           SKY/WX    TMP DP  RH WIND       PRES   REMARKS
CRAIG, CO      MOSUNNY   69  49  48 CALM      30.25F
GRAND JUNCTION PTSUNNY   78  46  32 SE16      30.11R
RIFLE          MOSUNNY   76  49  38 VRB3      30.18F
MONTROSE       PTSUNNY   76  47  35 SE6       30.20F
CORTEZ         SUNNY     81  45  28 VRB3      30.19R
PAGE, AZ       MOSUNNY   88  45  22 VRB3      30.04R
GRAND CANYON   SUNNY     70  56  61 VRB5      30.27F
KINGMAN        SUNNY     82  57  42 SW12      30.07S
FLAGSTAFF      MOSUNNY   68  56  65 SW9       30.30S

$$

REGIONAL REPORTS    NEVADA/IDAHO/WYOMING

CITY           SKY/WX    TMP DP  RH WIND       PRES   REMARKS
LAS VEGAS, NV  PTSUNNY   94  55  26 NW3       29.89S HX  92
ELY            MOSUNNY   68  51  54 CALM      30.26F
ELKO           MOSUNNY   74  56  53 CALM      30.18F
POCATELLO, ID  SUNNY     78  55  44 W9        30.13R
BURLEY         SUNNY     77  55  46 W7        30.10R
EVANSTON, WY   MOSUNNY   72  50  45 S8        30.31R
ROCK SPRINGS   MOSUNNY   67  58  72 NE5       30.27S
KEMMERER       MOSUNNY   70  50  49 N3        30.31F

$$


USA.gov is the U.S. government's official web portal to all federal, state and local government web resources and services.